Epoch 2003 May 1.0 TT = JDT 2452760.5 T 2003 May 17.97116 TT MPC q 2.1785469 (2000.0) P Q z +0.0261722 Peri. 155.08304 -0.27279638 +0.16844369 +/-0.0000000 Node 79.83763 -0.96174902 -0.07324767 e 0.9429826 Incl. 74.21896 +0.02491902 -0.98298601
m1 = 13.5 + 5 logΔ + 10.0 log r